www.pogodaiklimat.ru
Время
и дата
11:56 30.12
12:56 30.12
13:56 30.12
14:36 30.12
14:56 30.12
15:13 30.12
15:29 30.12
15:56 30.12
16:56 30.12
17:56 30.12
18:56 30.12
19:56 30.12
20:56 30.12
21:56 30.12
22:56 30.12
23:56 30.12
00:14 31.12
00:35 31.12
00:53 31.12
00:56 31.12
01:03 31.12
01:10 31.12
01:43 31.12
01:56 31.12
02:07 31.12
02:22 31.12
02:39 31.12
02:56 31.12
03:06 31.12
03:56 31.12
04:56 31.12
05:10 31.12
05:56 31.12
06:56 31.12
07:47 31.12
07:56 31.12
08:36 31.12
08:56 31.12
09:56 31.12
10:26 31.12
10:56 31.12
11:56 31.12
12:56 31.12
13:56 31.12
14:56 31.12
15:56 31.12
16:56 31.12
17:56 31.12
Ветер
(напр.,м/с)
Видим. Явления Облачность Т
(С)
Тd
(С)
f
(%)
Тe
(С)
Тes
(С)
Комфортность P
(гПа)
Po
(гПа)
Тmin
(С)
Tmax
(С)
R
(мм)
R24
(мм)
S
(см)
ЮЗ 2
{4}
6 км дождь, дымка 10/0 2250 м
[Ac Cb]
+19.4 +18.3 93 +21 +22 комфорт 1014.5 1005.9
Ю 1 16 км 10/0 2400 м
[Ac]
+18.9 +17.2 90 +20 +22 1013.0 1004.6 +18.3 +20.6 1.5
Ю 1 10 км слабый дождь, дымка 10/0 2850 м
[Ac]
+18.3 +17.2 93 +19 +21 1012.6 1004.3
штиль 0 16 км 10/2 240 м
[Ac Cb]
+18.3 +17.2 93 +19 +22 1004.6
З 1 13 км слабый дождь 10/2 210 м
[Ac]
+18.3 +17.2 93 +19 +21 1013.2 1004.9
З 1 3 км сильный дождь, дымка 10/0 2100 м
[Ac Cb]
+17.8 +17.2 96 +18 +19 1004.9
Ю 1 5 км дождь, дымка 10/0 2100 м
[Ac Cb]
+17.8 +17.2 96 +18 +19 1004.3
Ю 1 16 км 8/0 2700 м
[Ac]
+17.8 +17.2 96 +18 +19 1012.1 1003.6 4.3
Ю 1 6 км дождь, дымка 10/0 2850 м
[Ac Cb]
+17.8 +16.7 93 +18 +18 1013.0 1004.6
Ю 2 16 км слабый дождь 10/0 3300 м
[Ac]
+17.8 +16.7 93 +17 +17 1012.8 1004.6
Ю 2 16 км 10/2 210 м
[Ac]
+17.8 +16.7 93 +18 +18 1013.3 1004.9 +17.8 +18.9 7.1
ЮЗ 1 16 км 8/8 210 м +17.2 +16.7 97 +17 +17 1013.5 1005.3
ЮЗ 1 16 км 10/5 210 м
[Ac]
+17.2 +16.7 97 +18 +18 1013.8 1005.6
Ю 1 16 км 10/10 210 м +17.2 +16.7 97 +17 +17 1013.8 1005.3
Ю 2 16 км 10/10 210 м +17.2 +16.7 97 +17 +17 1013.1 1004.6
З 1 16 км 10/10 210 м +17.8 +16.7 93 +18 +18 1013.3 1004.9
ЮЗ 1 16 км 10/10 150 м +17.8 +16.7 93 +18 +18 1004.9
З 1 13 км 10/10 120 м +17.8 +17.2 96 +18 +18 1004.9
З 1 3 км дымка 10/10 90 м +18.0 +17.0 94 +18 +18 1004.9
З 1 3 км дымка 10/10 90 м +17.8 +17.2 96 +18 +18 1013.3 1004.9 +16.7 +17.8
З 1 3 км дымка 10/10 90 м +17.8 +17.2 96 +18 +18 1004.9
З 2 3 км дымка 10/10 90 м +17.8 +17.2 96 +18 +18 1004.9
З 2 6 км дымка 10/10 90 м +17.8 +17.2 96 +18 +18 1005.3
З 1 14 км 10/10 90 м +17.8 +17.8 100 +18 +18 1013.6 1005.3
З 1 14 км 10/10 150 м +18.3 +17.8 97 +19 +19 1005.3
З 1 13 км 10/10 210 м +18.3 +17.8 97 +19 +19 1005.6
З 1 14 км 10/10 210 м +17.8 +17.2 96 +18 +18 1005.6
З 2 16 км 8/8 390 м +17.8 +16.7 93 +18 +18 1014.1 1005.6
З 1 16 км 5/5 300 м +17.2 +16.1 93 +17 +17 1005.6
ЮЗ 1 16 км ясно +16.7 +15.6 93 +17 +17 1013.7 1005.3
штиль 0 11 км 2/2 330 м +15.6 +15.0 96 +15 +15 1014.0 1005.6
штиль 0 13 км 8/8 330 м +16.1 +15.0 93 +16 +16 1005.6
штиль 0 8 км дымка 8/8 270 м +15.6 +14.4 93 +15 +15 1014.9 1006.3
штиль 0 13 км 10/10 210 м +15.6 +15.0 96 +15 +15 1015.1 1006.6 +15.0 +18.3 8.6
З 1 10 км дымка 10/10 180 м +15.6 +15.0 96 +15 +15 1007.6
ЮЗ 1 10 км дымка 10/10 180 м +15.6 +15.0 96 +15 +15 1016.4 1007.9
ЮЗ 1 10 км дымка 10/10 210 м +15.6 +14.4 93 +15 +15 1007.9
З 1 10 км дымка 10/10 210 м +16.1 +14.4 90 +16 +16 1016.8 1008.3
ЮЗ 1 16 км 10/10 210 м +16.1 +14.4 90 +16 +16 1017.3 1009.0
нст 1 16 км 5/5 210 м
[Ac Ci]
+17.2 +14.4 84 +18 +19 1009.0
ЮЗ 1 16 км 5/0 3300 м
[Ac Ci]
+17.8 +14.4 80 +18 +21 1017.0 1008.6
З 1 16 км 5/0 3300 м
[Ac Ci]
+20.6 +13.9 65 +24 +28 комфорт 1016.2 1007.9
Ю 1 16 км 8/2 1290 м
[Ac Ci]
+22.2 +14.4 61 +25 +28 комфорт 1015.2 1006.9 +15.6 +22.2
ЮЗ 1 16 км 5/5 1170 м
[Ac]
+22.8 +12.2 51 +25 +29 комфорт 1014.1 1005.9
ЮЗ 1 16 км 8/5 690 м
[Ac]
+22.8 +15.0 61 +27 +28 душно 1014.2 1005.9
ЮЗ 1 16 км 10/2 1800 м
[Ac]
+22.8 +16.7 68 +27 +29 душно 1013.9 1005.6
ЮЗ 1 16 км 8/5 1800 м
[Ac]
+22.2 +17.2 73 +27 +27 душно 1014.1 1005.6
ЮЗ 1 16 км 8/5 780 м
[Ac]
+21.1 +17.8 81 +25 +25 комфорт 1014.4 1005.9
Местоположение метеостанции Columbia Metropolitan Airport: широта 33.9419 долгота -81.1181 высота над уровнем моря 71 м.
В архиве по умолчанию представлена погода в Коламбии за последние 1-2 суток. Обновление информации о фактической погоде в базе происходит ежечасно! Архивные данные за месяц целиком и за предыдущие месяцы Вы можете получить, выбрав интересующий диапазон дат из раскрывающегося списка и нажав кнопку "Ввод!".
Внимание! Архив погоды МЕТАР в базе сайта по станциям, не включенным в климатический монитор, хранится не более 60 дней. Нет смысла пытаться выбрать более раннюю дату.
*Определитесь, кто Вы:
Внимание! Время в таблицах - местное (без учета летнего времени). Для получения всемирного времени необходимо вычесть поправку, которая равна -5 ч.
Смотрите также архив погоды в соседних городах и на ближайших метеорологических станциях:
Партнеры нашего сайта:      
Пояснения к столбцам:
  • Ветер - указаны скорость ветра в м/с - средняя за 10 мин, порывы в срок и между сроками (в фигурных скобках) и направление, откуда дует ветер: С - северный,
  • СВ - северо-восточный, В - восточный, ЮВ - юго-восточный, Ю - южный, ЮЗ - юго-западный, З - западный, СЗ - северо-западный.
  • Видимость - горизонтальная дальность видимости в метрах или километрах. При видимости от 1 до 10 км при отсутствии осадков обычно наблюдается дымка, при ухудшении видимости до 1 км и менее - туман. В сухую погоду видимость может ухудшаться дымом, пылью или мглою.
  • Явления - указаны атмосферные явления, наблюдавшиеся в срок или в последний час перед сроком; фигурными скобками обозначены явления, наблюдавшиеся между сроками (за 1-3 часа до срока); квадратными скобками обозначены град или гололедные отложения с указанием их диаметра в мм.
  • Облачность - указаны через наклонную черту общая и нижняя облачность в баллах и высота нижней границы облаков в метрах; квадратными скобками обозначены формы облаков: Ci - перистые, Cs - перисто-слоистые, Cc - перисто-кучевые, Ac - высококучевые, As - высокослоистые, Sc - слоисто-кучевые, Ns - слоисто-дождевые, Cu - кучевые, Cb - кучево-дождевые. Подробнее классификацию облаков см. в Атласе облаков (PDF).
  • T - Температура воздуха - температура, измеренная на высоте 2 м над землей.
  • Td - Температура точки росы - температура, при понижении до которой содержащийся в воздухе водяной пар достигнет насыщения.
  • f - Относительная влажность воздуха - влажноcть воздуха, измеренная на высоте 2 м над землей.
  • Te - Эффективная температура - температура, которую ощущает одетый по сезону человек в тени. Характеристика душности погоды. При расчете учитывается влияние влажности воздуха и скорости ветра на теплоощущения человека.
  • Tes - Эффективная температура на солнце - температура, которую ощущает человек, с поправкой на солнечный нагрев. Характеристика знойности погоды. Зависит от высоты солнца над горизонтом, облачности и скорости ветра. Ночью, в пасмурную погоду, а также при ветре 12 м/с и более поправка равна нулю.
  • P - Атмосферное давление - приведенное к уровню моря атмосферное давление.
  • Po - Атмосферное давление - измеренное на уровне метеостанции атмосферное давление.
  • Tmin - Минимальная температура - минимум температуры воздуха на высоте 2 м над землей.
  • Tmax - Максимальная температура - максимум температуры воздуха на высоте 2 м над землей.
  • R - Количество осадков - Количество выпавших осадков за период времени, мм. При наведении курсора мыши на число - период времени, за который выпало указанное количество осадков.
  • R24 - Количество осадков - Количество выпавших осадков за 24 часа, мм.
  • S - Снежный покров - Высота снежного покрова, см. При наведении курсора мыши на число - состояние снежного покрова и степень покрытия местности в баллах.